Время (UTC), дата Ветер
(°,м/с) 
Видим.   Явления Облачность Т
(°С)
Тd
(°С)
f(%) Тe
(°С)
Pmin
(гПа)
dP
(гПа)
Po
(мм)
O2
(г/м3)
Тmin Tmax R s Состояние
почвы
00 01.09.12 070 (В) >10 км    6/3 1000 м средняя 
[Sc|Ac trans]
+13.4 +12.5 94 +19  1019.4  0.1  725  276           
03 01.09.12 130 (ЮВ) 4000 м  дымка  10/6 1000 м средняя 
[Sc|Ac und]
+13.7 +13 96 +20  1019.7  0.4  725  276           
06 01.09.12 070 (В) 4000 м  дымка  10/8 200 м средняя 
[Sc diur, vesp|Ac und]
+15.5 +13.2 86 +22  1020.5  1.1  726  274  +12.2        замёрзшая 
09 01.09.12 060 (СВ) >10 км    10/8 540 м кучево-дожд., средняя 
[Cb calv|Ac und]
+17.8 +13 73 +24  1020.3  0.2  726  272           
12 01.09.12 040 (СВ) >10 км    6/5 600 м средняя 
[Cu hum|Ac trans]
+19.6 +12.6 64 +26  1019.9  726  270           
15 01.09.12 060 (СВ) >10 км    1/1 600 м 
[Cu hum]
+18.7 +11.4 63 +23  1020.5  0.3  726  272    +20.2       
18 01.09.12 020 (С) >10 км    3/0 средняя 
[Ac trans]
+15 +8.7 66 +16  1022.5  1.3  727  276    +20.2       
21 01.09.12 050 (СВ) >10 км    6/3 1000 м средняя 
[Sc diur, vesp|Ac trans]
+14 +6.5 61 +14  1022.9  0.1  727  278           
00 02.09.12 060 (СВ) >10 км    8/4 1000 м средняя 
[Sc|Ac trans]
+12 +5.8 66 +12  1023.7  0.4  728  280           
03 02.09.12 100 (В) >10 км    4/1 1000 м средняя 
[Sc|Ac trans]
+11 +5 67 +11  1024.4  0.4  728  281           
06 02.09.12 080 (В) >10 км    4/0 средняя 
[Ac trans]
+17.7 +6.6 48 +18  1024.1  729  275  +10.8         
09 02.09.12 090 (В) >10 км    ясно 
+20.7 +7.2 42 +21  1023.1  -0.5  728  272           
12 02.09.12 040 (СВ) >10 км    ясно 
+22.2 +5.5 34 +22  1022.2  -0.6  728  270           
15 02.09.12 040 (СВ) >10 км    ясно 
+20.4 +3.9 34 +20  1022.7  0.1  728  272    +22.2       
18 02.09.12 060 (СВ) >10 км    1/0 средняя 
[Ac trans]
+15.4 +4.9 50 +16  1024.3  0.7  729  277    +22.2       
21 02.09.12 110 (В) >10 км    3/0 средняя 
[Ac trans]
+12.3 +4.8 60 +12  1024.2  -0.6  728  280           
00 03.09.12 120 (ЮВ) >10 км    1/0 средняя 
[Ac trans]
+12 +4.3 59 +12  1023.9  -0.4  728  280           
03 03.09.12 170 (Ю) >10 км    1/0 средняя 
[Ac trans]
+11.2 +3.4 59 +11  1023.6  -0.5  727  281           
06 03.09.12 110 (В) >10 км    ясно 
+17.9 +9 56 +18  1022  -0.2  727  273  +11         
09 03.09.12 110 (В) >10 км    ясно 
+22.7 +8 39 +23  1019.9  -1.2  726  269           
12 03.09.12 090 (В) 4{10}  >10 км    ясно 
+24.2 +7 33 +24  1018.4  -1.2  725  267           
15 03.09.12 100 (В) >10 км    ясно 
+21.8 +6.5 37 +22  1018.2  -0.6  725  269    +24.4       
18 03.09.12 060 (СВ) >10 км    ясно 
+16.6 +6.8 52 +17  1019.3  -0.6  725  274    +24.4       
21 03.09.12 060 (СВ) >10 км    ясно 
+14.6 +6.5 58 +15  1019.3  -0.4  725  276           
00 04.09.12 130 (ЮВ) >10 км    ясно 
+14.3 +5.7 56 +15  1018.7  -0.6  724  276           
03 04.09.12 170 (Ю) >10 км    ясно 
+12.6 +5.9 64 +14  1018.7  -0.3  724  278           
06 04.09.12 130 (ЮВ) >10 км    ясно 
+20.4 +9.1 48 +21  1017.2  724  270  +12.3         
09 04.09.12 120 (ЮВ) >10 км    ясно 
+25.3 +5.8 29 +25  1015.5  -0.9  724  266           
12 04.09.12 120 (ЮВ) >10 км    ясно 
+27.2 +4.6 24 +27  1013.9  -1.2  723  264           
15 04.09.12 110 (В) >10 км    ясно 
+23.6 +6.9 34 +24  1013.8  -1.2  722  267    +27.4       
18 04.09.12 130 (ЮВ) >10 км    ясно 
+18.6 +4.7 40 +20  1014.3  -0.4  722  272    +27.4       
21 04.09.12 150 (ЮВ) >10 км    ясно 
+17.9 +5.3 43 +18  1013.3  -1  721  272           
00 05.09.12 200 (Ю) >10 км    3/0 средняя 
[Ac trans]
+16.5 +7.3 55 +17  1012.4  -1.1  720  272           
03 05.09.12 280 (З) 6-10{10}  >10 км    3/0 средняя 
[Ac trans]
+17.5 +9 57 +18  1012.4  0.2  720  271           
06 05.09.12 280 (З) 4{10}  >10 км    3/0 средняя 
[Ac trans]
+22.1 +8 40 +22  1012.4  0.8  721  267  +15.7         
09 05.09.12 300 (СЗ) 7-10{12}  >10 км    3/0 средняя 
[Ac trans]
+24.2 +9.6 40 +26  1011.8  -0.2  721  265           
12 05.09.12 300 (СЗ) 7-11{15}  >10 км    8/4 1000 м кучево-дожд., средняя 
[Cb calv|Ac trans]
+23.3 +10.2 43 +26  1012.2  0.2  721  266           
15 05.09.12 310 (СЗ) 5{13}  >10 км    6/3 1000 м кучево-дожд., средняя 
[Cb calv|Ac trans]
+22 +10.1 47 +24  1012.9  0.5  721  267    +24.7       
18 05.09.12 330 (СЗ) >10 км    6/3 1000 м средняя 
[Sc diur, vesp|Ac trans]
+18.8 +7.5 48 +19  1015.7  2.1  723  271    +24.7       
21 05.09.12 350 (С) >10 км    8/0 средняя 
[Ac trans]
+16.6 +6.6 52 +17  1016.8  0.6  723  274           
00 06.09.12 010 (С) >10 км    3/0 средняя 
[Ac trans]
+14.1 +6.3 59 +15  1017.3  0.1  723  276           
03 06.09.12 050 (СВ) >10 км    3/0 средняя 
[Ac trans]
+13.3 +6 61 +15  1017.9  0.4  724  277           
06 06.09.12 060 (СВ) 2000 м    ясно 
+19.3 +7.7 47 +20  1017  0.3  724  271  +12.5         
09 06.09.12 090 (В) >10 км    ясно 
+21.9 +6.1 36 +22  1015.3  -1.2  723  269           
12 06.09.12 070 (В) >10 км    ясно 
+23.4 +4.2 29 +23  1013.8  -1.2  722  267           
15 06.09.12 080 (В) >10 км    ясно 
+20.6 +4.1 34 +21  1013.5  -0.7  722  270    +23.6       
18 06.09.12 080 (В) >10 км    ясно 
+15.3 +7 58 +15  1014.2  -0.2  721  274    +23.6       
21 06.09.12 090 (В) >10 км    ясно 
+14.2 +6.7 61 +15  1013.5  -0.9  721  275           
00 07.09.12 160 (Ю) >10 км    ясно 
+12.4 +6.9 69 +13  1013  -0.8  720  276           
03 07.09.12 170 (Ю) >10 км    ясно 
+12.8 +7.8 72 +12  1012.4  -0.4  720  276           
06 07.09.12 160 (Ю) >10 км    ясно 
+20.8 +9 47 +21  1010.6  -0.4  719  268  +11.4         
09 07.09.12 250 (З) >10 км    1/0 верхняя 
[Ci fib]
+26.3 +7.4 30 +26  1008.5  -1.1  719  263           
12 07.09.12 280 (З) 7-10{10}  >10 км    3/1 600 м верхняя 
[Cu hum|Ci fib]
+26.4 +8.8 33 +27  1008.2  -0.3  719  262           
15 07.09.12 300 (СЗ) 5{11}  >10 км    8/1 600 м верхняя 
[Sc diur, vesp|Ci]
+23.5 +5.9 32 +24  1009.2  0.4  719  266    +27.3       
18 07.09.12 280 (З) >10 км    6/0 верхняя 
[Ci fib]
+19 +7.4 47 +19  1011.6  1.6  720  270    +27.3       
21 07.09.12 270 (З) >10 км    8/0 верхняя 
[Ci]
+16.9 +11.1 69 +20  1012.9  0.9  721  271           
00 08.09.12 320 (СЗ) >10 км    8/0 верхняя 
[Ci fib]
+15 +12.4 84 +20  1013.9  0.7  721  273           
03 08.09.12 310 (СЗ) 4000 м  дымка  8/5 600 м кучево-дожд., верхняя 
[Cb calv|Ci fib]
+12.9 +11.5 91 +17  1015.1  0.7  722  275           
06 08.09.12 320 (СЗ) 4000 м  дымка  10/6 270 м средняя 
[St|Ac und]
+14.7 +11.2 80 +19  1015.7  0.9  722  274  +12.9         
09 08.09.12 290 (З) >10 км    4/4 600 м 
[Cu hum]
+19.6 +7.8 46 +20  1014.4  -0.5  722  270           
12 08.09.12 300 (СЗ) >10 км    3/1 600 м средняя 
[Cu hum|Ac cuf]
+20.9 +5.3 36 +21  1013.6  -0.6  722  269           
15 08.09.12 340 (С) >10 км    4/0 средняя, верхняя 
[Ac lent|Cc]
+18.8 +5.1 40 +19  1014.4  0.4  722  271    +21       
18 08.09.12 340 (С) >10 км    8/3 1000 м кучево-дожд., средняя 
[Cb calv|Ac trans]
+17 +6.2 49 +18  1015.9  1.2  723  273    +21       
21 08.09.12 330 (СЗ) >10 км    6/0 средняя 
[Ac trans]
+14.7 +6.1 56 +15  1016.5  0.2  723  275           
00 09.09.12 330 (СЗ) >10 км    6/0 средняя 
[Ac trans]
+14.2 +5.5 56 +15  1016.2  0.2  723  276           
03 09.09.12 330 (СЗ) >10 км    8/3 1500 м средняя 
[Sc|Ac trans]
+14.3 +5.5 55 +15  1015.9  -0.2  722  276           
06 09.09.12 080 (В) >10 км    8/5 1500 м средняя 
[Sc diur, vesp|Ac trans]
+17.6 +6 46 +19  1015.3  722  272  +14         
09 09.09.12 020 (С) >10 км    3/3 600 м 
[Cu hum]
+22 +6.9 38 +22  1013.4  -1  722  268           
12 09.09.12 260 (З) >10 км    5/5 1000 м 
[Cu hum]
+23.5 +7.8 37 +24  1011.8  -1.3  721  266           
15 09.09.12 300 (СЗ) >10 км    9/4 1000 м кучево-дожд., средняя 
[Cb calv|Ac trans]
+20.3 +6.5 41 +20  1012.8  0.4  721  269    +24.1       
18 09.09.12 280 (З) >10 км    8/0 средняя 
[Ac trans]
+18.3 +6.1 45 +18  1014.5  0.4  722  272    +24.1       
21 09.09.12 310 (СЗ) >10 км    8/0 средняя 
[Ac trans]
+16.9 +8.1 56 +17  1015.4  0.6  722  273           
00 10.09.12 290 (З) >10 км    8/0 средняя 
[Ac trans]
+14.9 +9.1 68 +16  1016.6  0.8  723  275           
03 10.09.12 350 (С) >10 км    4/0 средняя 
[Ac trans]
+11.3 +9.1 86 +12  1018.8  1.4  724  278           
06 10.09.12 060 (СВ) >10 км    4/1 600 м средняя 
[Cu hum|Ac trans]
+15.3 +8.8 65 +17  1019.8  1.7  725  275          замёрзшая 
09 10.09.12 360 (С) >10 км    8/6 1000 м кучево-дожд., средняя 
[Cb calv|Ac trans]
+15.9 +8.2 60 +16  1020.7  1.7  726  275           
12 10.09.12 320 (СЗ) >10 км    3/3 600 м 
[Cu hum]
+18.4 +3.4 37 +19  1020.3  726  274           
15 10.09.12 360 (С) >10 км    1/0 средняя 
[Ac trans]
+16.8 -1.4 29 +17  1021.5  0.8  727  276    +18.8       
18 10.09.12 360 (С) >10 км    ясно 
+13.4 -1.7 35 +14  1023.5  1.3  728  280    +18.8       
21 10.09.12 010 (С) >10 км    ясно 
+11.1 -1.1 43 +11  1024.5  0.5  728  282           
00 11.09.12 050 (СВ) >10 км    1/0 средняя 
[Ac trans]
+10.5 -0.7 46 +11  1024.6  728  282           
03 11.09.12 080 (В) >10 км    9/0 средняя 
[Ac trans]
+10.8 +1.6 53 +11  1025.2  0.6  729  282           
06 11.09.12 100 (В) >10 км    3/0 средняя 
[Ac trans]
+15.6 +1.7 39 +16  1024.9  0.5  729  278  +8         
09 11.09.12 060 (СВ) >10 км    3/0 верхняя 
[Ci fib]
+18.6 +1.1 31 +19  1023.3  -1  728  274           
12 11.09.12 050 (СВ) >10 км    ясно 
+20 +0.7 27 +20  1021.6  -1.3  727  273           
15 11.09.12 060 (СВ) >10 км    ясно 
+17.6 +0.7 32 +18  1021.7  -0.4  727  275    +20.2       
18 11.09.12 070 (В) >10 км    ясно 
+12.3 -0.6 41 +12  1023.2  0.5  727  280    +20.2       
21 11.09.12 100 (В) >10 км    ясно 
+9.4 +0.1 52 +8  1023.1  0.5  727  283           
00 12.09.12 090 (В) >10 км    ясно 
+7.5 -0.1 58 +6  1022.6  -0.8  726  285           
03 12.09.12 110 (В) >10 км    ясно 
+7.2 -0.1 60 +6  1022.2  -0.5  726  285           
06 12.09.12 110 (В) >10 км    ясно 
+16.8 +4 43 +17  1020.3  726  275  +6.6         
09 12.09.12 110 (В) 9-10  >10 км    ясно 
+20.9 +3.9 33 +21  1018.2  -1.2  725  271           
12 12.09.12 120 (ЮВ) 8-11{15}  >10 км    ясно 
+22.5 +3.8 29 +23  1015.9  -1.9  723  269           
15 12.09.12 110 (В) 7-12{12}  >10 км    ясно 
+19.8 +4.6 37 +20  1015.6  -0.7  723  271    +22.6       
18 12.09.12 100 (В) 6{12}  >10 км    ясно 
+15.2 +3.8 46 +15  1016.4  723  275    +22.6       
21 12.09.12 100 (В) 6-10{12}  >10 км    ясно 
+12.7 +6.8 67 +12  1016.3  -0.5  722  277           
00 13.09.12 110 (В) >10 км    ясно 
+12.2 +11 92 +14  1015.5  -0.8  722  276           
03 13.09.12 110 (В) 4000 м  дымка  3/3 200 м 
[St]
+11.7 +11.1 96 +14  1015.3  -0.2  722  277           
06 13.09.12 120 (ЮВ) 9-12{12}  >10 км    3/3 300 м 
[St]
+16.8 +11.1 69 +19  1015.1  0.7  722  272  +11.1         
09 13.09.12 120 (ЮВ) 9-15{15}  >10 км    3/3 600 м 
[Cu hum]
+22.3 +10.9 48 +25  1013.2  -0.9  722  267           
12 13.09.12 110 (В) 10-13{15}  >10 км    3/0 верхняя 
[Ci fib]
+24.9 +9.7 38 +26  1011.4  -0.9  721  264           
15 13.09.12 100 (В) 7-11{14}  >10 км    8/0 верхняя 
[Ci]
+22.1 +9.5 45 +23  1011.4  -0.5  720  267    +25.1       
18 13.09.12 110 (В) 6{12}  >10 км    4/0 верхняя 
[Ci fib]
+18.1 +10.9 63 +21  1013.2  1.1  721  270    +25.1       
21 13.09.12 110 (В) >10 км    ясно 
+15.2 +11.2 77 +19  1013.7  0.1  721  273           
00 14.09.12 120 (ЮВ) >10 км    ясно 
+13.6 +12 90 +18  1013.4  -0.6  721  274           
03 14.09.12 130 (ЮВ) 10 км    10/6 150 м средняя 
[St|Ac trans]
+13.1 +12.4 95 +17  1014.6  1.1  721  275           
06 14.09.12 140 (ЮВ) >10 км    10/8 210 м средняя 
[St|Ac und]
+17.1 +13.9 81 +25  1015.1  1.2  722  271  +12.1         
09 14.09.12 160 (Ю) >10 км    10/3 600 м кучево-дожд., средняя, верхняя 
[Cb calv|Ac trans|Ci fib]
+20.8 +14 65 +29  1015.3  0.8  723  268           
12 14.09.12 140 (ЮВ) >10 км    9/4 600 м верхняя 
[Sc diur, vesp|Ci fib]
+23.6 +13.8 54 +31  1014  -0.7  722  265           
15 14.09.12 120 (ЮВ) >10 км    8/3 1000 м кучево-дожд., верхняя 
[Cb calv|Ci fib]
+21.5 +13.6 61 +29  1014.3  -0.1  722  267    +24.1       
18 14.09.12 220 (ЮЗ) >10 км    8/3 1000 м средняя 
[Sc diur, vesp|Ac trans]
+17.1 +12.8 76 +24  1015.3  0.1  722  271    +24.1       
21 14.09.12 220 (ЮЗ) >10 км    3/0 средняя 
[Ac trans]
+16.5 +11.8 74 +21  1014.9  -0.5  722  272           
00 15.09.12 210 (ЮЗ) >10 км    3/0 средняя 
[Ac trans]
+13.4 +11.8 90 +19  1015.6  0.2  722  275           
03 15.09.12 140 (ЮВ) >10 км    3/0 средняя 
[Ac trans]
+14.3 +11.6 84 +20  1016.1  0.6  723  274           
06 15.09.12 320 (СЗ) >10 км    ясно 
+23 +12.8 53 +29  1014.9  0.4  723  266  +12.5         
09 15.09.12 310 (СЗ) >10 км    4/4 600 м 
[Cu hum]
+24.7 +12.1 45 +30  1014  -0.7  722  265           
12 15.09.12 360 (С) >10 км    6/6 600 м 
[Cu hum]
+26.8 +11 37 +30  1012.7  -0.9  722  263           
15 15.09.12 010 (С) >10 км    3/0 верхняя 
[Ci fib]
+24.2 +10.7 43 +27  1013.2  0.1  722  265    +27.5       
18 15.09.12 030 (СВ) >10 км    ясно 
+19.3 +10.9 58 +24  1014.5  0.4  722  270    +27.5       
21 15.09.12 180 (Ю) >10 км    ясно 
+18.8 +10.3 58 +22  1014.3  -0.3  722  270           
00 16.09.12 190 (Ю) >10 км    ясно 
+17 +10.3 65 +20  1014  -0.5  722  272           
03 16.09.12 210 (ЮЗ) >10 км    ясно 
+16.8 +10.4 66 +20  1014.5  0.4  722  272           
06 16.09.12 180 (Ю) >10 км    ясно 
+24.2 +12.2 47 +29  1013.7  0.5  722  265  +16.5         
09 16.09.12 190 (Ю) >10 км    3/1 600 м верхняя 
[Cu hum|Ci fib]
+28.6 +8.6 29 +29  1011.9  -1.1  721  262           
12 16.09.12 290 (З) >10 км    3/0 верхняя 
[Cu hum|Ci fib]
+29.8 +7.6 25 +30  1010.6  -1.1  721  261           
15 16.09.12 290 (З) >10 км    1/0 верхняя 
[Ci fib]
+25.6 +8.3 33 +26  1011.6  0.3  721  264    +30.3       
18 16.09.12 290 (З) >10 км    ясно 
+23 +8.8 40 +23  1012.9  0.8  721  267    +30.3       
21 16.09.12 320 (СЗ) >10 км    ясно 
+20.5 +8.9 47 +21  1013.4  0.1  722  269           
00 17.09.12 260 (З) >10 км    ясно 
+16.3 +8.5 60 +17  1014.3  0.1  722  273           
03 17.09.12 250 (З) >10 км    ясно 
+16.5 +9.3 62 +18  1014.5  0.2  722  273           
06 17.09.12 010 (С) >10 км    ясно 
+21.1 +11.9 56 +26  1014.3  0.7  722  268  +14.7         
09 17.09.12 020 (С) >10 км    1/1 600 м 
[Cu hum]
+25.6 +10.2 38 +28  1013.4  -0.2  722  264           
12 17.09.12 040 (СВ) >10 км    5/5 600 м 
[Cu hum]
+25.6 +11.6 42 +30  1013.1  -0.3  722  264           
15 17.09.12 040 (СВ) >10 км    ясно 
+22.7 +12.1 51 +28  1013.8  0.2  722  266    +26.2       
18 17.09.12 040 (СВ) >10 км    ясно 
+19.2 +11.6 61 +24  1015.3  0.8  723  270    +26.2       
21 17.09.12 070 (В) >10 км    ясно 
+15.8 +10.8 72 +19  1015.6  -0.3  722  273           
00 18.09.12 080 (В) >10 км    3/0 средняя 
[Ac trans]
+14.2 +8.2 67 +14  1016.1  0.1  723  275           
03 18.09.12 090 (В) >10 км    3/0 средняя 
[Ac trans]
+14 +8.8 71 +13  1016.7  0.6  723  276           
06 18.09.12 100 (В) >10 км    3/0 средняя 
[Ac trans]
+19 +9.9 55 +21  1016.5  0.7  724  271  +13.6         
09 18.09.12 100 (В) 7-10  >10 км    3/0 средняя 
[Ac trans]
+22.4 +10.6 47 +25  1015.7  -0.2  723  267           
12 18.09.12 090 (В) 7-11  >10 км    3/1 1000 м средняя 
[Sc diur, vesp|Ac trans]
+23.3 +8.5 39 +23  1014.9  -0.6  723  267           
15 18.09.12 080 (В) 6-11{11}  >10 км    3/0 средняя 
[Ac trans]
+20.1 +6.8 42 +20  1015.5  723  270    +23.6       
18 18.09.12 080 (В) >10 км    3/0 средняя 
[Ac trans]
+18.2 +3.9 39 +18  1015.9  723  272    +23.6       
21 18.09.12 060 (СВ) >10 км    5/0 средняя 
[Ac trans]
+15.3 +5 50 +16  1015.8  -0.5  722  275           
00 19.09.12 070 (В) >10 км    8/0 средняя 
[Ac trans]
+14.3 +7.5 64 +14  1015.7  -0.3  722  275           
03 19.09.12 100 (В) >10 км    10/5 300 м средняя 
[Sc|Ac und]
+16.1 +13.8 86 +24  1015.4  0.2  722  272           
06 19.09.12 100 (В) 8-10  >10 км    9/6 600 м средняя 
[Sc diur, vesp|Ac trans]
+18.3 +10.4 60 +20  1015.5  0.5  723  271  +13.4         
09 19.09.12 110 (В) 8-13{11}  >10 км    1/0 верхняя 
[Ci fib]
+22 +7.5 39 +22  1014.6  -0.3  722  268           
12 19.09.12 110 (В) 7-10{13}  >10 км    ясно 
+23.4 +8.2 38 +23  1013.5  -0.7  722  267           
15 19.09.12 100 (В) 6{12}  >10 км    3/0 верхняя 
[Ci fib]
+20.6 +8.4 45 +21  1013.6  -0.4  722  269    +23.7       
18 19.09.12 090 (В) 4{11}  >10 км    ясно 
+16.9 +7.5 54 +17  1014.1  -0.2  722  272    +23.7       
21 19.09.12 100 (В) >10 км    ясно 
+15 +10.7 75 +18  1013.4  -0.2  721  273           
00 20.09.12 100 (В) >10 км    ясно 
+13.1 +10.9 87 +15  1013.5  -0.2  721  275           
03 20.09.12 110 (В) >10 км    8/4 300 м средняя 
[Sc|Ac trans]
+13.5 +12.5 94 +19  1013.7  0.3  721  274           
06 20.09.12 100 (В) 7{10}  >10 км    10/8 420 м средняя 
[Sc|Ac und]
+16.5 +13.6 83 +23  1013.6  0.3  721  271  +12.7         
09 20.09.12 110 (В) 8-11{12}  >10 км    6/0 верхняя 
[Ci fib]
+22.6 +12 51 +27  1012.1  -0.4  721  266           
12 20.09.12 110 (В) 7-10{12}  >10 км    8/0 верхняя 
[Ci fib]
+25.1 +10.9 41 +28  1011.1  -0.5  720  264           
15 20.09.12 120 (ЮВ) 3{14}  >10 км    8/0 средняя, верхняя 
[Ac trans|Ci fib]
+21.6 +11.3 52 +25  1012.5  0.7  721  267    +25.4       
18 20.09.12 080 (В) >10 км    10/0 средняя 
[Ac trans]
+19.3 +10.7 57 +23  1012.6  -0.3  721  269    +25.4       
21 20.09.12 130 (ЮВ) >10 км    8/0 средняя 
[Ac trans]
+18.1 +11.2 64 +23  1012.5  -0.3  721  270           
00 21.09.12 120 (ЮВ) >10 км    10/3 600 м кучево-дожд., средняя 
[Cb calv|Ac trans]
+17.9 +11.2 65 +23  1012.5  721  270           
03 21.09.12 080 (В) >10 км    9/5 600 м кучево-дожд., средняя 
[Cb calv|Ac trans]
+16 +12 77 +22  1013.9  721  272           
06 21.09.12 150 (ЮВ) >10 км  {ливн. осадки}  9/6 600 м кучево-дожд., средняя 
[Cb calv|Ac trans]
+18.8 +13.7 72 +27  1013.6  0.3  722  269  +16         
09 21.09.12 070 (В) >10 км    4/1 1000 м кучево-дожд., верхняя 
[Cb calv|Ci fib]
+24.3 +13.7 52 +32  1012.1  -0.6  721  264           
12 21.09.12 070 (В) >10 км    3/3 600 м 
[Cu hum]
+25.7 +12.3 43 +31  1011  -0.9  720  263           
15 21.09.12 020 (С) 24  >10 км    4/4 1000 м кучево-дожд., средняя 
[Cb calv|Ac trans]
+13.7   1011.6  0.1  721      +25.8       
18 21.09.12 140 (ЮВ) >10 км  в посл. час ливневой дождь  10/8 1000 м кучево-дожд., верхняя 
[Cb calv|Ci fib]
+19.5 +14.5 73 +30  1012.4  0.2  721  268    +25.8  0.0     
21 21.09.12 050 (СВ) >10 км  {ливн. осадки}  5/3 1000 м кучево-дожд., средняя 
[Cb calv|Ac trans]
+16.8 +15 89 +27  1012.6  -0.2  721  270           
00 22.09.12 210 (ЮЗ) >10 км  {ливн. осадки}  5/3 1000 м кучево-дожд., средняя 
[Cb calv|Ac trans]
+15.8 +14.7 93 +25  1012.1  -0.8  720  271           
03 22.09.12 090 (В) >10 км    9/5 1000 м кучево-дожд., средняя 
[Cb calv|Ac trans]
+16 +14.3 90 +26  1011.9  -0.2  720  271           
06 22.09.12 140 (ЮВ) >10 км    9/3 1000 м кучево-дожд., средняя 
[Cb calv|Ac trans]
+17.8 +15.1 84 +29  1011.9  0.3  720  269  +15.6    0.8     
09 22.09.12 130 (ЮВ) >10 км    8/4 600 м средняя 
[Cu med, cong|Ac trans]
+23.6 +15.4 60 +34  1010.1  -0.7  720  264           
12 22.09.12 170 (Ю) >10 км  в посл. час гроза  10/4 600 м кучево-дожд., средняя 
[Cb calv|Ac und]
+23.7 +13.9 54 +32  1010.3  0.2  720  264           
15 22.09.12 300 (СЗ) >10 км  слаб. ливневой дождь, в посл. час гроза  10/5 600 м кучево-дожд., средняя 
[Cb cap|Ac und]
+16 +14.9 93 +27  1012.2  0.5  720  271    +24.5       
18 22.09.12 270 (З) >10 км  {гроза, ливн. осадки}  8/3 1000 м средняя 
[Sc diur, vesp|Ac trans]
+15.9 +14.8 93 +26  1013.1  0.9  721  271    +24.5     
21 22.09.12 310 (СЗ) >10 км    6/0 средняя 
[Ac trans]
+15.3 +13.9 91 +24  1012.9  -0.3  721  272           
00 23.09.12 270 (З) 10 км  слаб. дождь  10/6 200 м средняя 
[St|Ac und]
+15.9 +15 94 +26  1012.5  -0.2  720  271           
03 23.09.12 280 (З) 4000 м  дождь  10/10 180 м 
[Frnb|Ns]
+15.2 +14.7 97 +24  1013.2  0.5  721  272           
06 23.09.12 300 (СЗ) 4000 м  дымка{дождь}  10/8 100 м кучево-дожд., средняя 
[Cb calv|Ac und]
+15.2 +14.5 96 +24  1014.1  0.8  721  272  +14.8       
09 23.09.12 270 (З) >10 км    10/4 600 м кучево-дожд., средняя 
[Cb calv|Ac und]
+17.8 +14.3 80 +26  1013.8  0.2  722  270           
12 23.09.12 280 (З) >10 км    9/4 600 м кучево-дожд., средняя 
[Cb calv|Ac trans]
+19.5 +13.4 68 +27  1013.9  0.3  722  269           
15 23.09.12 280 (З) >10 км  в посл. час ливневой дождь  8/4 600 м кучево-дожд., средняя 
[Cb calv|Ac trans]
+17.8 +13.7 77 +25  1014.9  0.7  722  270    +20.4       
18 23.09.12 280 (З) >10 км  {ливн. осадки}  1/0 средняя 
[Ac trans]
+16.4 +11.4 72 +20  1016.3  723  273    +20.4     
21 23.09.12 270 (З) >10 км    4/0 средняя 
[Ac trans]
+15.1 +13.4 90 +21  1016.3  -0.2  723  273           
00 24.09.12 280 (З) >10 км    3/0 средняя 
[Ac trans]
+15 +13 88 +20  1017.2  0.8  724  274           
03 24.09.12 280 (З) 10 км    3/3 300 м 
[Sc]
+14.1 +12.9 92 +19  1017.9  0.5  724  275      280    мокрая 
06 24.09.12 260 (З) >10 км    8/4 300 м верхняя 
[Sc diur, vesp|Ci fib]
+17.4 +12.4 72 +22  1017.7  0.4  724  272  +14         
09 24.09.12 280 (З) >10 км    8/6 600 м верхняя 
[Sc diur, vesp|Ci fib]
+19.1 +11.1 60 +22  1017.2  -0.2  724  271           
12 24.09.12 280 (З) >10 км    6/6 600 м 
[Sc]
+21.1 +9.9 49 +23  1016.3  -0.5  724  269           
15 24.09.12 340 (С) >10 км    4/0 средняя 
[Ac trans]
+18.2 +8.3 52 +20  1016.7  0.1  724  272    +21.1       
18 24.09.12 150 (ЮВ) >10 км    3/0 средняя 
[Ac trans]
+14.7 +8.2 65 +16  1017.3  0.1  723  275    +21.1       
21 24.09.12 180 (Ю) >10 км    ясно 
+13 +8.2 73 +13  1016.4  -1.1  723  276           
00 25.09.12 170 (Ю) >10 км    ясно 
+13.5 +8.6 72 +14  1015.3  -0.9  722  276           
03 25.09.12 140 (ЮВ) >10 км    ясно 
+12.5 +7.9 73 +12  1014.5  -0.9  721  276           
06 25.09.12 160 (Ю) >10 км    н/о 
+19.6 +11.3 59 +24  1013.1  0.1  721  269  +12         
09 25.09.12 330 (СЗ) >10 км    ясно 
+23.2 +11.1 46 +27  1012.3  0.1  721  266           
12 25.09.12 310 (СЗ) >10 км    ясно 
+24.5 +9.9 40 +26  1011.7  -0.4  721  265           
15 25.09.12 320 (СЗ) >10 км    ясно 
+21.2 +11.4 54 +25  1012.6  0.4  721  267    +24.8       
18 25.09.12 тихо ()   >10 км    ясно 
+17.5 +12.1 71 +22  1013.6  0.3  721  271    +24.8       
21 25.09.12 080 (В) >10 км    ясно 
+15.6 +11.7 78 +21  1014  721  273           
00 26.09.12 140 (ЮВ) >10 км    ясно 
+15 +11.5 80 +20  1014.5  0.4  722  273           
03 26.09.12 140 (ЮВ) >10 км    ясно 
+16 +10.7 71 +19  1014.8  0.4  722  273           
06 26.09.12 130 (ЮВ) >10 км    ясно 
+21.2 +11.9 55 +26  1014.9  1.1  723  268  +13.2         
09 26.09.12 170 (Ю) >10 км    1/1 600 м 
[Cu hum]
+26.4 +11 38 +30  1014  0.1  723  263           
12 26.09.12 270 (З) >10 км    3/3 600 м 
[Cu hum]
+26.9 +7.7 30 +27  1013.7  -0.2  722  264           
15 26.09.12 280 (З) >10 км    3/3 600 м 
[Cu hum]
+20.1 +8.1 46 +20  1015.7  0.8  723  270    +27.3       
18 26.09.12 280 (З) >10 км  зарница  3/0 средняя 
[Ac trans]
+18.2 +6.6 47 +19  1016.9  0.8  724  272    +27.3       
21 26.09.12 260 (З) >10 км    3/0 средняя 
[Ac trans]
+18.5 +7.1 47 +20  1017  0.1  724  272           
00 27.09.12 260 (З) >10 км    1/0 средняя 
[Ac trans]
+15.7 +7.2 57 +16  1017.5  724  275           
03 27.09.12 240 (ЮЗ) >10 км    8/0 средняя 
[Ac trans]
+14.7 +8 64 +16  1018.2  0.5  724  275           
06 27.09.12 350 (С) >10 км    5/3 600 м верхняя 
[Cu hum|Ci fib]
+22.6 +10.5 46 +25  1018.2  1.4  725  268  +13         
09 27.09.12 050 (СВ) >10 км    6/1 600 м верхняя 
[Cu hum|Ci fib]
+25.6 +8.8 34 +26  1018  0.3  725  266           
12 27.09.12 030 (СВ) >10 км    5/4 600 м верхняя 
[Cu hum|Ci fib]
+27 +8.1 30 +27  1017.2  -0.5  725  264           
15 27.09.12 090 (В) >10 км    3/0 средняя, верхняя 
[Ac trans|Ci fib]
+21.9 +11.8 53 +26  1019  0.9  726  268    +27       
18 27.09.12 120 (ЮВ) >10 км    3/0 средняя 
[Ac trans]
+18 +14.4 79 +26  1021.5  1.8  727  272    +27       
21 27.09.12 110 (В) >10 км    ясно 
+16.8 +13.8 82 +24  1021.8  727  273           
00 28.09.12 140 (ЮВ) >10 км    ясно 
+15.7 +14.1 90 +24  1021.8  -0.2  727  274           
03 28.09.12 110 (В) >10 км    ясно 
+15.1 +14.2 94 +23  1022.4  0.5  727  275           
06 28.09.12 130 (ЮВ) >10 км    3/3 600 м 
[Sc]
+20.4 +15 71 +30  1022.3  0.8  728  270  +14.2         
09 28.09.12 110 (В) >10 км    ясно 
+24.3 +11.4 44 +28  1021.3  -0.3  728  267           
12 28.09.12 110 (В) >10 км    ясно 
+25.7 +11.1 40 +29  1019.8  -1.2  727  266           
15 28.09.12 110 (В) >10 км    ясно 
+21.2 +11.9 55 +26  1020.5  0.1  727  269    +25.9       
18 28.09.12 130 (ЮВ) >10 км    ясно 
+17.3 +11.9 71 +22  1021.9  0.1  727  273    +25.9       
21 28.09.12 130 (ЮВ) >10 км    ясно 
+15.6 +12.1 80 +21  1021.9  -0.3  727  275           
00 29.09.12 150 (ЮВ) >10 км    ясно 
+15.1 +11.9 81 +19  1021.4  -0.5  727  275           
03 29.09.12 140 (ЮВ) >10 км    ясно 
+12.9 +10.6 86 +15  1021.9  727  278           
06 29.09.12 150 (ЮВ) >10 км    ясно 
+19.8 +12.5 63 +26  1021  0.4  727  271  +12.9         
09 29.09.12 340 (С) >10 км    ясно 
+25.1 +12.8 46 +31  1019.8  -0.2  727  266           
12 29.09.12 310 (СЗ) >10 км    3/3 600 м 
[Cu hum]
+26.6 +10.9 37 +30  1018.5  -1  726  265           
15 29.09.12 340 (С) >10 км    ясно 
+23 +8 38 +23  1019.2  726  268    +26.8       
18 29.09.12 340 (С) >10 км    ясно 
+20.1 +8.4 47 +20  1020.1  0.3  726  271    +26.8       
21 29.09.12 310 (СЗ) >10 км    ясно 
+19.7 +7.1 44 +21  1019.8  -0.3  726  272           
00 30.09.12 300 (СЗ) >10 км    3/0 верхняя 
[Ci sp]
+18.8 +9.4 54 +20  1020  726  272           
03 30.09.12 300 (СЗ) >10 км    6/0 средняя, верхняя 
[Ac As|Ci sp]
+18.4 +9.6 56 +20  1020.6  0.6  726  272           
06 30.09.12 290 (З) >10 км    3/0 средняя 
[Ac trans]
+23.1 +10.5 45 +26  1020.6  0.8  727  268  +16.1         
09 30.09.12 300 (СЗ) >10 км    ясно 
+24.8 +8.9 36 +25  1020.5  0.1  727  267           
12 30.09.12 300 (СЗ) >10 км    ясно 
+25.7 +9.8 37 +27  1019.8  -0.5  727  266           
15 30.09.12 300 (СЗ) >10 км    3/0 верхняя 
[Ci fib]
+22 +9.9 46 +24  1020.6  0.2  727  269    +26.1       
18 30.09.12 290 (З) >10 км    4/0 верхняя 
[Ci fib]
+18.8 +10.5 58 +21  1021.6  0.4  727  272    +26.1       
21 30.09.12 310 (СЗ) >10 км    1/0 верхняя 
[Ci fib]
+18.7 +10.8 60 +22  1021.4  -0.2  727  272           
00 01.10.12 290 (З) >10 км    ясно 
+14.4 +8.8 69 +15  1022.5  0.2  727  277           
03 01.10.12 240 (ЮЗ) >10 км    4/0 верхняя 
[Ci fib]
+11.9 +8.4 79 +11  1024.3  1.3  728  280           
06 01.10.12 270 (З) >10 км    3/0 верхняя 
[Ci fib]
+22.1 +9.6 45 +23  1023.3  0.8  729  270  +11.6         
09 01.10.12 300 (СЗ) >10 км    1/0 верхняя 
[Ci fib]
+24.2 +10.2 41 +26  1022.8  0.1  729  268           
12 01.10.12 300 (СЗ) >10 км    5/0 верхняя 
[Ci fib]
+25.1 +9.6 37 +26  1022.2  -0.4  728  267           
15 01.10.12 320 (СЗ) >10 км    3/0 верхняя 
[Ci fib]
+22.3 +10.7 48 +25  1023.1  0.4  729  269    +25.6       
18 01.10.12 030 (СВ) >10 км    ясно 
+18.9 +11.3 61 +24  1024.4  0.6  729  273    +25.6       
21 01.10.12 090 (В) >10 км    ясно 
+15 +9.9 72 +17  1025.7  0.5  730  277           
00 02.10.12 090 (В) >10 км    ясно 
+12.9 +9.3 79 +14  1025.5  -0.6  729  279           
03 02.10.12 110 (В) >10 км    ясно 
+11.7 +8.7 82 +11  1025.5  -0.2  729  280           
Время (UTC), дата Ветер
(°,м/с) 
Видим.   Явления Облачность Т
(°С)
Тd
(°С)
f(%) Тe
(°С)
Pmin
(гПа)
dP
(гПа)
Po
(мм)
O2
(г/м3)
Тmin Tmax R s Состояние
почвы